Погода в Малой Кандале

Россия / Ульяновская область     54°29′15″N   49°23′31″E
темп.,
°C
ветер,
м/с
пор.,
м/с
влажн.,
%
обл.,
%
осадки,
мм/ч
давл.,
гПа
погр.,
м
10 апреля, сб
сб1001:00+1ссв51099100 2.8 1027357
04:00+1ссв51299100 3.2 1027394
07:00+1св61299100 0.1 1027370
10:00+1св510100100 0.4 1027313
13:00+3св48100100 0.2 1026310
16:00+4св47100100 0.2 1025298
19:00+4св57100100 0.1 1024151
22:00+4св4799100 0.6 1024107
11 апреля, вс
вс1101:00+5св2397100 0.1 102334
04:00+4ссв3398100 0.1 102444
07:00+5ссз1197100 0.0 102527
10:00+7сз219699 0.0 1027139
13:00+10зсз2286100 0.0 1029362
16:00+9с3390100 0.1 1030236
19:00+7с3594100 0.0 1031131
22:00+6всв3696100 0.0 1032108
12 апреля, пн
пн1201:00+6ссв3697100 0.0 1032123
04:00+6св3796100 0.0 1033131
07:00+7св3796100 0.0 1033138
10:00+12всв348094 0.0 1034324
13:00+16вюв346075 0.0 1033680
16:00+18вюв335260 0.0 10331112
19:00+14в336953 0.0 103239
22:00+12вюв337715 0.0 103332
13 апреля, вт
вт1301:00+10юв338255 0.0 103327
04:00+9юв338593 0.0 103326
07:00+8юв34845 0.0 103375
10:00+13ююв465671 0.0 1033398
13:00+16ююв4639100 0.0 1032828
16:00+17ююв453555 0.0 10311082
19:00+13ююв335324 0.0 103025
22:00+10ююв32605 0.0 103017
14 апреля, ср
ср1401:00+9ю336753 0.0 103027
04:00+8ю337470 0.0 103022
07:00+8ююв237644 0.0 103032
10:00+13ююв345799 0.0 1029297
13:00+17ююв344345 0.0 1028832
16:00+18ююв34355 0.0 10261056
19:00+14юв22505 0.0 102516
22:00+11ююв33593 0.0 102518